Time,TemperatureF,DewpointF,PressureIn,WindDirection,WindDirectionDegrees,WindSpeedMPH,WindSpeedGustMPH,Humidity,HourlyPrecipIn,Conditions,Clouds,dailyrainin,SoftwareType,DateUTC
2013-04-20 00:01:00,79.2,47.7,29.91,South,180,1.0,5.0,31,0.00,,,0.00,meteohub,2013-04-20 04:01:00,
2013-04-20 00:02:00,79.2,47.7,29.91,South,180,1.0,5.0,31,0.00,,,0.00,meteohub,2013-04-20 04:02:00,
2013-04-20 00:03:00,79.2,47.7,29.91,East,90,2.0,5.0,31,0.00,,,0.00,meteohub,2013-04-20 04:03:00,
2013-04-20 00:08:00,79.2,47.7,29.91,South,180,2.0,4.0,31,0.00,,,0.00,meteohub,2013-04-20 04:08:00,
2013-04-20 00:13:00,79.3,47.8,29.91,West,270,1.0,4.0,31,0.00,,,0.00,meteohub,2013-04-20 04:13:00,
2013-04-20 00:19:00,79.2,47.8,29.91,SW,225,2.0,4.0,31,0.00,,,0.00,meteohub,2013-04-20 04:19:00,
2013-04-20 00:24:00,79.2,47.8,29.91,South,180,1.0,4.0,31,0.00,,,0.00,meteohub,2013-04-20 04:24:00,
2013-04-20 00:29:00,79.3,46.6,29.91,East,90,2.0,4.0,30,0.00,,,0.00,meteohub,2013-04-20 04:29:00,
2013-04-20 00:34:00,79.3,47.3,29.91,South,180,2.0,3.0,31,0.00,,,0.00,meteohub,2013-04-20 04:34:00,
2013-04-20 00:39:00,79.3,47.3,29.91,East,90,6.0,6.0,31,0.00,,,0.00,meteohub,2013-04-20 04:39:00,
2013-04-20 00:44:00,79.5,48.2,29.90,SE,135,7.0,7.0,32,0.00,,,0.00,meteohub,2013-04-20 04:44:00,
2013-04-20 00:49:00,79.3,48.2,29.90,East,90,4.0,8.0,32,0.00,,,0.00,meteohub,2013-04-20 04:49:00,
2013-04-20 00:54:00,79.2,48.2,29.89,South,180,5.0,9.0,32,0.00,,,0.00,meteohub,2013-04-20 04:54:00,
2013-04-20 00:59:00,82.6,48.2,29.89,East,90,8.0,9.0,32,0.00,,,0.00,meteohub,2013-04-20 04:59:00,
2013-04-20 01:05:00,78.8,48.4,29.89,East,90,6.0,9.0,32,0.00,,,0.00,meteohub,2013-04-20 05:05:00,
2013-04-20 01:10:00,78.3,47.3,29.90,SW,225,11.0,11.0,31,0.00,,,0.00,meteohub,2013-04-20 05:10:00,
2013-04-20 01:15:00,77.9,46.9,29.89,East,90,10.0,10.0,31,0.00,,,0.00,meteohub,2013-04-20 05:15:00,
2013-04-20 01:20:00,77.5,46.8,29.89,SE,135,4.0,12.0,31,0.00,,,0.00,meteohub,2013-04-20 05:20:00,
2013-04-20 01:25:00,77.5,47.5,29.89,East,90,2.0,12.0,32,0.00,,,0.00,meteohub,2013-04-20 05:25:00,
2013-04-20 01:30:00,77.5,47.5,29.89,East,90,2.0,12.0,32,0.00,,,0.00,meteohub,2013-04-20 05:30:00,
2013-04-20 01:35:00,77.5,47.7,29.89,SE,135,3.0,9.0,32,0.00,,,0.00,meteohub,2013-04-20 05:35:00,
2013-04-20 01:40:00,77.5,46.8,29.88,East,90,5.0,7.0,31,0.00,,,0.00,meteohub,2013-04-20 05:40:00,
2013-04-20 01:45:00,77.5,46.4,29.88,East,90,4.0,7.0,31,0.00,,,0.00,meteohub,2013-04-20 05:45:00,
2013-04-20 01:50:00,77.5,46.2,29.88,SE,135,4.0,7.0,31,0.00,,,0.00,meteohub,2013-04-20 05:50:00,
2013-04-20 01:55:00,77.5,47.1,29.89,East,90,6.0,6.0,32,0.00,,,0.00,meteohub,2013-04-20 05:55:00,
2013-04-20 02:01:00,76.3,47.1,29.89,SW,225,6.0,9.0,32,0.11,,,0.06,meteohub,2013-04-20 06:01:00,
2013-04-20 02:06:00,74.8,47.3,29.88,SE,135,13.0,13.0,32,0.12,,,0.12,meteohub,2013-04-20 06:06:00,
2013-04-20 02:11:00,73.6,47.3,29.88,NE,45,7.0,14.0,32,0.27,,,0.27,meteohub,2013-04-20 06:11:00,
2013-04-20 02:16:00,72.9,46.0,29.88,SE,135,5.0,14.0,31,0.34,,,0.34,meteohub,2013-04-20 06:16:00,
2013-04-20 02:21:00,72.3,45.9,29.87,ESE,113,15.0,19.0,31,0.60,,,0.60,meteohub,2013-04-20 06:21:00,
2013-04-20 02:26:00,72.7,46.8,29.87,East,90,6.0,19.0,32,0.61,,,0.61,meteohub,2013-04-20 06:26:00,
2013-04-20 02:31:00,73.2,46.8,29.87,East,90,1.0,19.0,32,0.61,,,0.61,meteohub,2013-04-20 06:31:00,
2013-04-20 02:36:00,73.8,47.7,29.87,SW,225,1.0,15.0,33,0.61,,,0.61,meteohub,2013-04-20 06:36:00,
2013-04-20 02:41:00,74.5,47.7,29.87,NW,315,1.0,6.0,33,0.61,,,0.61,meteohub,2013-04-20 06:41:00,
2013-04-20 02:46:00,74.7,47.8,29.87,West,270,1.0,2.0,33,0.61,,,0.61,meteohub,2013-04-20 06:46:00,
2013-04-20 02:51:00,74.7,46.0,29.87,West,270,1.0,1.0,31,0.61,,,0.61,meteohub,2013-04-20 06:51:00,
2013-04-20 02:56:00,74.3,46.6,29.86,NW,315,2.0,2.0,32,0.61,,,0.61,meteohub,2013-04-20 06:56:00,
2013-04-20 03:02:00,73.8,46.6,29.86,NW,315,0.0,2.0,32,0.51,,,0.61,meteohub,2013-04-20 07:02:00,
2013-04-20 03:07:00,73.6,46.6,29.86,North,0,0.0,2.0,32,0.46,,,0.61,meteohub,2013-04-20 07:07:00,
2013-04-20 03:12:00,73.4,47.7,29.86,North,0,0.0,2.0,33,0.32,,,0.61,meteohub,2013-04-20 07:12:00,
2013-04-20 03:17:00,73.4,47.7,29.86,North,0,0.0,2.0,33,0.15,,,0.61,meteohub,2013-04-20 07:17:00,
2013-04-20 03:22:00,73.4,47.7,29.86,North,0,0.0,2.0,33,0.00,,,0.61,meteohub,2013-04-20 07:22:00,
2013-04-20 03:27:00,73.4,47.7,29.86,North,0,0.0,1.0,33,0.00,,,0.61,meteohub,2013-04-20 07:27:00,
2013-04-20 03:32:00,73.4,45.9,29.86,North,0,0.0,1.0,31,0.00,,,0.61,meteohub,2013-04-20 07:32:00,
2013-04-20 03:37:00,73.4,46.4,29.85,North,0,0.0,0.0,32,0.00,,,0.61,meteohub,2013-04-20 07:37:00,
2013-04-20 03:42:00,73.4,46.4,29.86,North,0,0.0,0.0,32,0.00,,,0.61,meteohub,2013-04-20 07:42:00,
2013-04-20 03:47:00,73.8,47.3,29.85,North,0,0.0,0.0,33,0.00,,,0.61,meteohub,2013-04-20 07:47:00,
2013-04-20 03:52:00,74.1,47.5,29.85,South,180,1.0,1.0,33,0.00,,,0.61,meteohub,2013-04-20 07:52:00,
2013-04-20 03:57:00,74.5,47.5,29.85,SW,225,0.0,2.0,33,0.00,,,0.61,meteohub,2013-04-20 07:57:00,
2013-04-20 04:02:00,74.8,47.7,29.85,SW,225,2.0,2.0,33,0.00,,,0.61,meteohub,2013-04-20 08:02:00,
2013-04-20 04:07:00,75.2,47.7,29.86,SW,225,4.0,4.0,33,0.00,,,0.61,meteohub,2013-04-20 08:07:00,
2013-04-20 04:12:00,75.2,46.8,29.86,SW,225,2.0,4.0,32,0.09,,,0.71,meteohub,2013-04-20 08:12:00,
2013-04-20 04:17:00,75.2,46.6,29.86,SW,225,2.0,6.0,32,0.12,,,0.73,meteohub,2013-04-20 08:17:00,
2013-04-20 04:22:00,75.4,46.4,29.86,South,180,1.0,6.0,32,0.12,,,0.73,meteohub,2013-04-20 08:22:00,
2013-04-20 04:27:00,75.4,47.3,29.86,SW,225,0.0,6.0,33,0.12,,,0.73,meteohub,2013-04-20 08:27:00,
2013-04-20 04:32:00,75.6,47.3,29.85,SW,225,2.0,2.0,33,0.12,,,0.73,meteohub,2013-04-20 08:32:00,
2013-04-20 04:37:00,75.6,47.5,29.86,SW,225,1.0,2.0,33,0.12,,,0.73,meteohub,2013-04-20 08:37:00,
2013-04-20 04:42:00,75.6,47.5,29.86,West,270,2.0,2.0,33,0.12,,,0.73,meteohub,2013-04-20 08:42:00,
2013-04-20 04:47:00,75.6,47.7,29.86,SW,225,4.0,4.0,33,0.12,,,0.73,meteohub,2013-04-20 08:47:00,
2013-04-20 04:52:00,75.6,48.6,29.86,SW,225,2.0,4.0,34,0.12,,,0.73,meteohub,2013-04-20 08:52:00,
2013-04-20 04:57:00,75.6,47.7,29.86,SW,225,2.0,4.0,33,0.12,,,0.73,meteohub,2013-04-20 08:57:00,
2013-04-20 05:02:00,75.4,46.8,29.87,SW,225,1.0,4.0,32,0.12,,,0.73,meteohub,2013-04-20 09:02:00,
2013-04-20 05:07:00,75.2,46.4,29.86,SSW,203,1.0,2.0,32,0.11,,,0.73,meteohub,2013-04-20 09:07:00,
2013-04-20 05:12:00,75.2,47.3,29.86,SW,225,2.0,2.0,33,0.01,,,0.73,meteohub,2013-04-20 09:12:00,
2013-04-20 05:17:00,75.0,47.5,29.86,West,270,2.0,2.0,33,0.00,,,0.73,meteohub,2013-04-20 09:17:00,
2013-04-20 05:22:00,75.4,47.5,29.87,South,180,1.0,2.0,33,0.00,,,0.73,meteohub,2013-04-20 09:22:00,
2013-04-20 05:27:00,74.8,47.7,29.86,South,180,1.0,2.0,33,0.00,,,0.73,meteohub,2013-04-20 09:27:00,
2013-04-20 05:32:00,74.8,47.7,29.86,SW,225,1.0,2.0,33,0.00,,,0.73,meteohub,2013-04-20 09:32:00,
2013-04-20 05:37:00,74.8,48.6,29.86,SW,225,1.0,2.0,34,0.00,,,0.73,meteohub,2013-04-20 09:37:00,
2013-04-20 05:42:00,74.7,48.6,29.86,SW,225,0.0,2.0,34,0.00,,,0.73,meteohub,2013-04-20 09:42:00,
2013-04-20 05:47:00,74.7,47.8,29.86,SW,225,0.0,2.0,33,0.00,,,0.73,meteohub,2013-04-20 09:47:00,
2013-04-20 05:52:00,74.5,46.8,29.86,SW,225,0.0,1.0,32,0.00,,,0.73,meteohub,2013-04-20 09:52:00,
2013-04-20 05:57:00,74.5,47.5,29.85,SW,225,0.0,1.0,33,0.00,,,0.73,meteohub,2013-04-20 09:57:00,
2013-04-20 06:02:00,74.5,47.5,29.86,SW,225,2.0,2.0,33,0.00,,,0.73,meteohub,2013-04-20 10:02:00,
2013-04-20 06:07:00,74.7,47.5,29.86,SW,225,1.0,2.0,33,0.00,,,0.73,meteohub,2013-04-20 10:07:00,
2013-04-20 06:12:00,74.7,47.7,29.85,SW,225,0.0,2.0,33,0.00,,,0.73,meteohub,2013-04-20 10:12:00,
2013-04-20 06:17:00,74.7,48.4,29.86,SW,225,0.0,2.0,34,0.00,,,0.73,meteohub,2013-04-20 10:17:00,
2013-04-20 06:22:00,74.5,47.7,29.86,SW,225,0.0,1.0,33,0.00,,,0.73,meteohub,2013-04-20 10:22:00,
2013-04-20 06:27:00,74.5,47.7,29.86,SW,225,1.0,1.0,33,0.00,,,0.73,meteohub,2013-04-20 10:27:00,
2013-04-20 06:32:00,74.5,48.7,29.86,SW,225,1.0,1.0,34,0.00,,,0.73,meteohub,2013-04-20 10:32:00,
2013-04-20 06:37:00,74.3,47.8,29.86,SW,225,0.0,1.0,33,0.00,,,0.73,meteohub,2013-04-20 10:37:00,
2013-04-20 06:42:00,74.3,46.8,29.86,SW,225,1.0,1.0,32,0.00,,,0.73,meteohub,2013-04-20 10:42:00,
2013-04-20 06:47:00,74.3,47.5,29.86,SW,225,0.0,1.0,33,0.00,,,0.73,meteohub,2013-04-20 10:47:00,
2013-04-20 06:52:00,74.1,47.5,29.86,SW,225,0.0,1.0,33,0.00,,,0.73,meteohub,2013-04-20 10:52:00,
2013-04-20 06:57:00,74.1,47.5,29.86,SW,225,0.0,1.0,33,0.00,,,0.73,meteohub,2013-04-20 10:57:00,
2013-04-20 07:02:00,74.1,48.2,29.86,South,180,1.0,0.0,34,0.00,,,0.73,meteohub,2013-04-20 11:02:00,
2013-04-20 07:07:00,74.3,48.4,29.87,SE,135,0.0,1.0,34,0.00,,,0.73,meteohub,2013-04-20 11:07:00,
2013-04-20 07:12:00,74.3,48.6,29.87,North,0,0.0,1.0,34,0.00,,,0.73,meteohub,2013-04-20 11:12:00,
2013-04-20 07:17:00,74.5,48.6,29.88,North,0,0.0,1.0,34,0.00,,,0.73,meteohub,2013-04-20 11:17:00,
2013-04-20 07:22:00,74.5,48.6,29.87,North,0,0.0,1.0,34,0.00,,,0.73,meteohub,2013-04-20 11:22:00,
2013-04-20 07:27:00,74.8,48.7,29.87,East,90,0.0,1.0,34,0.00,,,0.73,meteohub,2013-04-20 11:27:00,
2013-04-20 07:32:00,75.7,48.7,29.88,East,90,0.0,1.0,34,0.00,,,0.73,meteohub,2013-04-20 11:32:00,
2013-04-20 07:37:00,77.0,48.7,29.87,East,90,0.0,1.0,34,0.00,,,0.73,meteohub,2013-04-20 11:37:00,
2013-04-20 07:42:00,78.3,48.7,29.88,East,90,0.0,0.0,34,0.00,,,0.73,meteohub,2013-04-20 11:42:00,
2013-04-20 07:47:00,78.8,48.0,29.88,East,90,0.0,0.0,33,0.00,,,0.73,meteohub,2013-04-20 11:47:00,
2013-04-20 07:52:00,78.3,46.9,29.89,East,90,0.0,0.0,32,0.00,,,0.73,meteohub,2013-04-20 11:52:00,
2013-04-20 07:57:00,77.5,47.5,29.88,NW,315,0.0,1.0,33,0.00,,,0.73,meteohub,2013-04-20 11:57:00,
2013-04-20 08:02:00,77.5,47.5,29.88,NW,315,0.0,1.0,33,0.00,,,0.73,meteohub,2013-04-20 12:02:00,
2013-04-20 08:07:00,77.9,48.2,29.88,NW,315,0.0,1.0,34,0.00,,,0.73,meteohub,2013-04-20 12:07:00,
2013-04-20 08:12:00,77.9,48.2,29.89,West,270,0.0,1.0,34,0.00,,,0.73,meteohub,2013-04-20 12:12:00,
2013-04-20 08:17:00,78.8,48.4,29.88,West,270,0.0,1.0,34,0.00,,,0.73,meteohub,2013-04-20 12:17:00,
2013-04-20 08:22:00,78.6,48.4,29.89,West,270,0.0,1.0,34,0.00,,,0.73,meteohub,2013-04-20 12:22:00,
2013-04-20 08:27:00,78.6,48.4,29.89,NW,315,1.0,1.0,34,0.00,,,0.73,meteohub,2013-04-20 12:27:00,
2013-04-20 08:32:00,79.2,48.4,29.89,NW,315,2.0,2.0,34,0.00,,,0.73,meteohub,2013-04-20 12:32:00,
2013-04-20 08:37:00,79.7,47.7,29.89,NW,315,0.0,2.0,33,0.00,,,0.73,meteohub,2013-04-20 12:37:00,
2013-04-20 08:42:00,79.3,46.6,29.89,North,0,2.0,2.0,32,0.00,,,0.73,meteohub,2013-04-20 12:42:00,
2013-04-20 08:47:00,79.0,47.3,29.90,SW,225,2.0,2.0,33,0.00,,,0.73,meteohub,2013-04-20 12:47:00,
2013-04-20 08:52:00,78.3,48.0,29.90,SW,225,2.0,2.0,34,0.00,,,0.73,meteohub,2013-04-20 12:52:00,
2013-04-20 08:57:00,78.1,48.0,29.89,SW,225,3.0,3.0,34,0.00,,,0.73,meteohub,2013-04-20 12:57:00,
2013-04-20 09:02:00,77.9,48.2,29.89,SW,225,3.0,4.0,34,0.00,,,0.73,meteohub,2013-04-20 13:02:00,
2013-04-20 09:07:00,79.3,48.2,29.89,SW,225,4.0,4.0,34,0.00,,,0.73,meteohub,2013-04-20 13:07:00,
2013-04-20 09:12:00,80.2,48.4,29.89,South,180,4.0,4.0,34,0.00,,,0.73,meteohub,2013-04-20 13:12:00,
2013-04-20 09:17:00,81.1,48.4,29.89,South,180,3.0,6.0,34,0.00,,,0.73,meteohub,2013-04-20 13:17:00,
2013-04-20 09:22:00,81.5,49.3,29.89,West,270,3.0,6.0,35,0.00,,,0.73,meteohub,2013-04-20 13:22:00,
2013-04-20 09:27:00,81.5,49.5,29.89,West,270,2.0,6.0,35,0.00,,,0.73,meteohub,2013-04-20 13:27:00,
2013-04-20 09:32:00,81.7,48.0,29.89,SW,225,3.0,6.0,33,0.00,,,0.73,meteohub,2013-04-20 13:32:00,
2013-04-20 09:37:00,82.2,47.8,29.89,SSW,203,4.0,6.0,33,0.00,,,0.73,meteohub,2013-04-20 13:37:00,
2013-04-20 09:42:00,82.4,47.8,29.89,South,180,7.0,8.0,33,0.00,,,0.73,meteohub,2013-04-20 13:42:00,
2013-04-20 09:47:00,83.3,48.9,29.89,SW,225,6.0,8.0,34,0.00,,,0.73,meteohub,2013-04-20 13:47:00,
2013-04-20 09:52:00,83.5,48.9,29.89,SW,225,7.0,8.0,34,0.00,,,0.73,meteohub,2013-04-20 13:52:00,
2013-04-20 09:57:00,83.7,49.1,29.89,SW,225,4.0,7.0,34,0.00,,,0.73,meteohub,2013-04-20 13:57:00,
2013-04-20 10:02:00,83.7,49.3,29.89,South,180,4.0,7.0,34,0.00,,,0.73,meteohub,2013-04-20 14:02:00,
2013-04-20 10:07:00,84.2,50.4,29.89,SW,225,4.0,7.0,35,0.00,,,0.73,meteohub,2013-04-20 14:07:00,
2013-04-20 10:12:00,84.2,50.7,29.89,SW,225,5.0,7.0,35,0.00,,,0.73,meteohub,2013-04-20 14:12:00,
2013-04-20 10:17:00,84.0,50.2,29.90,West,270,5.0,6.0,34,0.00,,,0.73,meteohub,2013-04-20 14:17:00,
2013-04-20 10:23:00,84.2,49.5,29.90,SW,225,3.0,6.0,33,0.00,,,0.73,meteohub,2013-04-20 14:23:00,
2013-04-20 10:28:00,84.6,49.6,29.90,South,180,3.0,6.0,33,0.00,,,0.73,meteohub,2013-04-20 14:28:00,
2013-04-20 10:33:00,84.2,49.8,29.91,SW,225,5.0,6.0,33,0.00,,,0.73,meteohub,2013-04-20 14:33:00,
2013-04-20 10:38:00,84.2,49.8,29.90,NW,315,4.0,6.0,33,0.00,,,0.73,meteohub,2013-04-20 14:38:00,
2013-04-20 10:43:00,84.4,50.0,29.91,NW,315,2.0,6.0,33,0.00,,,0.73,meteohub,2013-04-20 14:43:00,
2013-04-20 10:49:00,86.5,50.2,29.91,South,180,4.0,6.0,33,0.00,,,0.73,meteohub,2013-04-20 14:49:00,
2013-04-20 10:54:00,88.3,49.1,29.91,SW,225,6.0,6.0,32,0.00,,,0.73,meteohub,2013-04-20 14:54:00,
2013-04-20 10:59:00,89.2,49.1,29.92,SW,225,6.0,6.0,32,0.00,,,0.73,meteohub,2013-04-20 14:59:00,
2013-04-20 11:04:00,88.0,49.1,29.91,West,270,1.0,6.0,32,0.00,,,0.73,meteohub,2013-04-20 15:04:00,
2013-04-20 11:09:00,88.2,49.1,29.91,SW,225,2.0,6.0,32,0.00,,,0.73,meteohub,2013-04-20 15:09:00,
2013-04-20 11:14:00,90.7,49.1,29.92,North,0,2.0,6.0,32,0.00,,,0.73,meteohub,2013-04-20 15:14:00,
2013-04-20 11:19:00,90.0,49.1,29.92,South,180,3.0,4.0,32,0.00,,,0.73,meteohub,2013-04-20 15:19:00,
2013-04-20 11:24:00,89.4,48.9,29.92,West,270,4.0,5.0,32,0.00,,,0.73,meteohub,2013-04-20 15:24:00,
2013-04-20 11:30:00,88.5,48.0,29.92,North,0,2.0,5.0,31,0.00,,,0.73,meteohub,2013-04-20 15:30:00,
2013-04-20 11:35:00,88.5,48.9,29.92,West,270,2.0,5.0,32,0.00,,,0.73,meteohub,2013-04-20 15:35:00,
2013-04-20 11:40:00,88.5,48.9,29.92,NW,315,6.0,6.0,32,0.00,,,0.73,meteohub,2013-04-20 15:40:00,
2013-04-20 11:45:00,89.2,49.1,29.91,South,180,2.0,6.0,32,0.00,,,0.73,meteohub,2013-04-20 15:45:00,
2013-04-20 11:50:00,90.7,49.3,29.91,SE,135,3.0,6.0,32,0.00,,,0.73,meteohub,2013-04-20 15:50:00,
2013-04-20 11:55:00,90.7,48.4,29.91,East,90,2.0,6.0,31,0.00,,,0.73,meteohub,2013-04-20 15:55:00,
2013-04-20 12:00:00,90.9,49.5,29.91,South,180,2.0,4.0,32,0.00,,,0.73,meteohub,2013-04-20 16:00:00,
2013-04-20 12:05:00,92.1,49.5,29.91,West,270,2.0,4.0,32,0.00,,,0.73,meteohub,2013-04-20 16:05:00,
2013-04-20 12:11:00,91.6,49.6,29.91,East,90,2.0,4.0,32,0.00,,,0.73,meteohub,2013-04-20 16:11:00,
2013-04-20 12:16:00,90.1,48.7,29.91,East,90,5.0,5.0,31,0.00,,,0.73,meteohub,2013-04-20 16:16:00,
2013-04-20 12:21:00,89.8,48.6,29.91,NE,45,1.0,7.0,31,0.00,,,0.73,meteohub,2013-04-20 16:21:00,
2013-04-20 12:26:00,91.6,49.5,29.90,South,180,1.0,7.0,32,0.00,,,0.73,meteohub,2013-04-20 16:26:00,
2013-04-20 12:31:00,93.2,49.5,29.90,East,90,3.0,7.0,32,0.00,,,0.73,meteohub,2013-04-20 16:31:00,
2013-04-20 12:36:00,94.1,48.4,29.89,East,90,2.0,3.0,31,0.00,,,0.73,meteohub,2013-04-20 16:36:00,
2013-04-20 12:41:00,94.3,48.4,29.90,SW,225,3.0,3.0,31,0.00,,,0.73,meteohub,2013-04-20 16:41:00,
2013-04-20 12:46:00,93.6,48.0,29.89,SW,225,2.0,3.0,31,0.00,,,0.73,meteohub,2013-04-20 16:46:00,
2013-04-20 12:51:00,93.2,48.9,29.89,SW,225,2.0,3.0,32,0.00,,,0.73,meteohub,2013-04-20 16:51:00,
2013-04-20 12:56:00,93.2,48.9,29.89,SE,135,2.0,3.0,32,0.00,,,0.73,meteohub,2013-04-20 16:56:00,
2013-04-20 13:02:00,92.8,48.9,29.89,East,90,3.0,3.0,32,0.00,,,0.73,meteohub,2013-04-20 17:02:00,
2013-04-20 13:07:00,92.1,48.0,29.88,SE,135,2.0,3.0,31,0.00,,,0.73,meteohub,2013-04-20 17:07:00,
2013-04-20 13:12:00,92.8,48.0,29.88,NW,315,2.0,3.0,31,0.00,,,0.73,meteohub,2013-04-20 17:12:00,
2013-04-20 13:17:00,91.9,48.2,29.88,North,0,2.0,3.0,31,0.00,,,0.73,meteohub,2013-04-20 17:17:00,
2013-04-20 13:22:00,91.4,49.1,29.88,NW,315,0.0,3.0,32,0.00,,,0.73,meteohub,2013-04-20 17:22:00,
2013-04-20 13:27:00,91.6,49.3,29.87,East,90,1.0,3.0,32,0.00,,,0.73,meteohub,2013-04-20 17:27:00,
2013-04-20 13:32:00,91.6,48.4,29.88,SE,135,3.0,3.0,31,0.00,,,0.73,meteohub,2013-04-20 17:32:00,
2013-04-20 13:37:00,90.9,48.4,29.87,East,90,2.0,3.0,31,0.00,,,0.73,meteohub,2013-04-20 17:37:00,
2013-04-20 13:42:00,91.0,48.2,29.88,East,90,3.0,3.0,31,0.00,,,0.73,meteohub,2013-04-20 17:42:00,
2013-04-20 13:47:00,90.7,48.0,29.88,SW,225,3.0,4.0,31,0.00,,,0.73,meteohub,2013-04-20 17:47:00,
2013-04-20 13:52:00,90.3,48.0,29.88,East,90,2.0,4.0,31,0.00,,,0.73,meteohub,2013-04-20 17:52:00,
2013-04-20 13:57:00,90.0,48.0,29.88,SSW,203,2.0,4.0,31,0.00,,,0.73,meteohub,2013-04-20 17:57:00,
2013-04-20 14:02:00,90.1,47.8,29.88,SW,225,3.0,7.0,31,0.00,,,0.73,meteohub,2013-04-20 18:02:00,
2013-04-20 14:07:00,90.7,47.7,29.88,East,90,2.0,7.0,31,0.00,,,0.73,meteohub,2013-04-20 18:07:00,
2013-04-20 14:12:00,91.6,48.6,29.87,East,90,4.0,7.0,32,0.00,,,0.73,meteohub,2013-04-20 18:12:00,
2013-04-20 14:17:00,91.2,48.6,29.87,South,180,4.0,4.0,32,0.00,,,0.73,meteohub,2013-04-20 18:17:00,
2013-04-20 14:22:00,90.7,47.5,29.87,South,180,6.0,6.0,31,0.00,,,0.73,meteohub,2013-04-20 18:22:00,
2013-04-20 14:27:00,89.4,47.3,29.87,NE,45,5.0,8.0,31,0.00,,,0.73,meteohub,2013-04-20 18:27:00,
2013-04-20 14:32:00,89.2,48.2,29.87,South,180,4.0,8.0,32,0.00,,,0.73,meteohub,2013-04-20 18:32:00,
2013-04-20 14:37:00,89.8,48.2,29.86,SE,135,4.0,8.0,32,0.00,,,0.73,meteohub,2013-04-20 18:37:00,
2013-04-20 14:42:00,90.7,48.9,29.86,South,180,7.0,8.0,33,0.00,,,0.73,meteohub,2013-04-20 18:42:00,
2013-04-20 14:47:00,91.9,48.4,29.85,East,90,3.0,8.0,32,0.00,,,0.73,meteohub,2013-04-20 18:47:00,
2013-04-20 14:52:00,92.3,47.5,29.85,SW,225,3.0,10.0,31,0.00,,,0.73,meteohub,2013-04-20 18:52:00,
2013-04-20 14:57:00,91.8,48.2,29.85,South,180,8.0,10.0,32,0.00,,,0.73,meteohub,2013-04-20 18:57:00,
2013-04-20 15:02:00,91.0,47.1,29.85,East,90,8.0,10.0,31,0.00,,,0.73,meteohub,2013-04-20 19:02:00,
2013-04-20 15:08:00,90.7,47.8,29.84,SE,135,4.0,10.0,32,0.00,,,0.73,meteohub,2013-04-20 19:08:00,
2013-04-20 15:13:00,91.2,48.9,29.83,South,180,4.0,10.0,33,0.00,,,0.73,meteohub,2013-04-20 19:13:00,
2013-04-20 15:18:00,90.0,48.0,29.83,NE,45,8.0,10.0,32,0.00,,,0.73,meteohub,2013-04-20 19:18:00,
2013-04-20 15:23:00,88.5,47.8,29.83,East,90,4.0,8.0,32,0.00,,,0.73,meteohub,2013-04-20 19:23:00,
2013-04-20 15:28:00,88.0,47.7,29.83,South,180,3.0,8.0,32,0.00,,,0.73,meteohub,2013-04-20 19:28:00,
2013-04-20 15:33:00,88.3,47.3,29.84,East,90,4.0,9.0,32,0.00,,,0.73,meteohub,2013-04-20 19:33:00,
2013-04-20 15:38:00,88.3,48.0,29.83,South,180,4.0,9.0,33,0.00,,,0.73,meteohub,2013-04-20 19:38:00,
2013-04-20 15:43:00,88.9,48.2,29.83,East,90,10.0,10.0,33,0.00,,,0.73,meteohub,2013-04-20 19:43:00,
2013-04-20 15:48:00,88.0,48.2,29.83,SE,135,8.0,10.0,33,0.00,,,0.73,meteohub,2013-04-20 19:48:00,
2013-04-20 15:54:00,87.8,47.3,29.83,SW,225,5.0,10.0,32,0.00,,,0.73,meteohub,2013-04-20 19:54:00,
2013-04-20 15:59:00,88.2,47.1,29.83,SE,135,8.0,10.0,32,0.00,,,0.73,meteohub,2013-04-20 19:59:00,
2013-04-20 16:04:00,89.6,46.9,29.83,South,180,5.0,10.0,32,0.00,,,0.73,meteohub,2013-04-20 20:04:00,
2013-04-20 16:09:00,89.6,47.7,29.83,SE,135,5.0,12.0,33,0.00,,,0.73,meteohub,2013-04-20 20:09:00,
2013-04-20 16:14:00,88.2,48.7,29.82,East,90,10.0,12.0,34,0.00,,,0.73,meteohub,2013-04-20 20:14:00,
2013-04-20 16:19:00,87.3,48.0,29.81,East,90,13.0,13.0,33,0.00,,,0.73,meteohub,2013-04-20 20:19:00,
2013-04-20 16:24:00,86.9,47.3,29.81,SE,135,4.0,11.0,32,0.00,,,0.73,meteohub,2013-04-20 20:24:00,
2013-04-20 16:29:00,86.2,47.3,29.81,East,90,8.0,13.0,32,0.00,,,0.73,meteohub,2013-04-20 20:29:00,
2013-04-20 16:34:00,85.5,47.5,29.82,East,90,8.0,13.0,32,0.00,,,0.73,meteohub,2013-04-20 20:34:00,
2013-04-20 16:40:00,84.9,48.6,29.81,North,0,11.0,14.0,33,0.00,,,0.73,meteohub,2013-04-20 20:40:00,
2013-04-20 16:45:00,83.8,48.6,29.82,East,90,3.0,14.0,33,0.00,,,0.73,meteohub,2013-04-20 20:45:00,
2013-04-20 16:50:00,81.3,47.7,29.83,North,0,8.0,14.0,32,0.00,,,0.73,meteohub,2013-04-20 20:50:00,
2013-04-20 16:55:00,77.4,46.8,29.86,North,0,19.0,19.0,31,0.00,,,0.73,meteohub,2013-04-20 20:55:00,
2013-04-20 17:00:00,73.0,47.3,29.88,NW,315,21.0,21.0,32,0.00,,,0.83,meteohub,2013-04-20 21:00:00,
2013-04-20 17:05:00,71.1,47.3,29.88,West,270,12.0,23.0,32,0.48,,,1.22,meteohub,2013-04-20 21:05:00,
2013-04-20 17:10:00,70.2,48.4,29.89,SW,225,11.0,27.0,33,0.84,,,1.57,meteohub,2013-04-20 21:10:00,
2013-04-20 17:15:00,69.8,47.5,29.89,NW,315,8.0,27.0,32,0.93,,,1.67,meteohub,2013-04-20 21:15:00,
2013-04-20 17:20:00,69.8,46.4,29.89,NW,315,8.0,20.0,31,1.04,,,1.77,meteohub,2013-04-20 21:20:00,
2013-04-20 17:26:00,69.6,47.3,29.88,NW,315,4.0,11.0,32,1.11,,,1.84,meteohub,2013-04-20 21:26:00,
2013-04-20 17:31:00,69.8,48.0,29.89,North,0,4.0,8.0,33,1.12,,,1.85,meteohub,2013-04-20 21:31:00,
2013-04-20 17:36:00,70.2,48.2,29.88,North,0,6.0,9.0,33,1.15,,,1.88,meteohub,2013-04-20 21:36:00,
2013-04-20 17:41:00,70.5,48.2,29.88,North,0,4.0,9.0,33,1.29,,,2.02,meteohub,2013-04-20 21:41:00,
2013-04-20 17:46:00,71.1,46.4,29.87,North,0,2.0,8.0,31,1.35,,,2.08,meteohub,2013-04-20 21:46:00,
2013-04-20 17:51:00,71.2,47.3,29.87,North,0,2.0,8.0,32,1.37,,,2.10,meteohub,2013-04-20 21:51:00,
2013-04-20 17:56:00,71.6,48.2,29.88,West,270,1.0,4.0,33,1.35,,,2.10,meteohub,2013-04-20 21:56:00,
2013-04-20 18:01:00,72.0,48.4,29.88,SW,225,0.0,3.0,33,1.04,,,2.10,meteohub,2013-04-20 22:01:00,
2013-04-20 18:07:00,72.1,48.6,29.88,East,90,0.0,3.0,33,0.74,,,2.10,meteohub,2013-04-20 22:07:00,
2013-04-20 18:12:00,72.5,46.8,29.88,NW,315,1.0,2.0,31,0.50,,,2.10,meteohub,2013-04-20 22:12:00,
2013-04-20 18:17:00,72.9,46.6,29.88,NE,45,2.0,2.0,31,0.39,,,2.10,meteohub,2013-04-20 22:17:00,
2013-04-20 18:22:00,72.9,47.3,29.88,NW,315,2.0,2.0,32,0.31,,,2.10,meteohub,2013-04-20 22:22:00,
2013-04-20 18:27:00,72.5,47.5,29.89,North,0,2.0,4.0,32,0.26,,,2.10,meteohub,2013-04-20 22:27:00,
2013-04-20 18:32:00,72.1,47.7,29.89,NW,315,2.0,5.0,32,0.24,,,2.10,meteohub,2013-04-20 22:32:00,
2013-04-20 18:37:00,71.8,46.8,29.90,North,0,2.0,5.0,31,0.21,,,2.10,meteohub,2013-04-20 22:37:00,
2013-04-20 18:42:00,71.4,45.7,29.89,North,0,2.0,4.0,30,0.08,,,2.10,meteohub,2013-04-20 22:42:00,
2013-04-20 18:47:00,71.2,46.4,29.90,NE,45,1.0,4.0,31,0.00,,,2.10,meteohub,2013-04-20 22:47:00,
2013-04-20 18:52:00,71.2,47.3,29.90,North,0,2.0,4.0,32,0.00,,,2.10,meteohub,2013-04-20 22:52:00,
2013-04-20 18:57:00,71.1,46.8,29.89,NE,45,2.0,2.0,31,0.00,,,2.10,meteohub,2013-04-20 22:57:00,
2013-04-20 19:02:00,71.2,46.6,29.88,North,0,2.0,3.0,31,0.00,,,2.10,meteohub,2013-04-20 23:02:00,
2013-04-20 19:07:00,71.4,46.2,29.88,South,180,2.0,5.0,31,0.00,,,2.10,meteohub,2013-04-20 23:07:00,
2013-04-20 19:12:00,71.6,47.1,29.88,North,0,1.0,5.0,32,0.00,,,2.10,meteohub,2013-04-20 23:12:00,
2013-04-20 19:17:00,71.6,47.3,29.88,NE,45,1.0,5.0,32,0.00,,,2.10,meteohub,2013-04-20 23:17:00,
2013-04-20 19:22:00,71.6,47.3,29.88,NE,45,2.0,4.0,32,0.00,,,2.10,meteohub,2013-04-20 23:22:00,
2013-04-20 19:27:00,71.6,46.6,29.88,ESE,113,3.0,3.0,31,0.00,,,2.10,meteohub,2013-04-20 23:27:00,
2013-04-20 19:32:00,72.0,45.3,29.89,NE,45,2.0,4.0,30,0.00,,,2.10,meteohub,2013-04-20 23:32:00,
2013-04-20 19:37:00,72.3,46.2,29.89,NE,45,4.0,4.0,31,0.00,,,2.10,meteohub,2013-04-20 23:37:00,
2013-04-20 19:42:00,72.1,47.1,29.89,NE,45,4.0,6.0,32,0.00,,,2.10,meteohub,2013-04-20 23:42:00,
2013-04-20 19:47:00,72.1,47.3,29.89,North,0,3.0,6.0,32,0.00,,,2.10,meteohub,2013-04-20 23:47:00,
2013-04-20 19:52:00,72.3,47.3,29.89,NE,45,1.0,5.0,32,0.00,,,2.10,meteohub,2013-04-20 23:52:00,
2013-04-20 19:57:00,72.0,46.4,29.89,East,90,3.0,5.0,31,0.00,,,2.10,meteohub,2013-04-20 23:57:00,
2013-04-20 20:02:00,72.1,46.2,29.90,North,0,2.0,5.0,31,0.00,,,2.10,meteohub,2013-04-21 00:02:00,
2013-04-20 20:07:00,72.1,46.4,29.90,East,90,2.0,4.0,31,0.00,,,0.00,meteohub,2013-04-21 00:07:00,
2013-04-20 20:12:00,72.1,47.3,29.91,South,180,1.0,4.0,32,0.00,,,0.00,meteohub,2013-04-21 00:12:00,
2013-04-20 20:17:00,72.0,47.5,29.91,South,180,1.0,4.0,32,0.00,,,0.00,meteohub,2013-04-21 00:17:00,
2013-04-20 20:22:00,72.0,47.7,29.91,South,180,0.0,2.0,32,0.00,,,0.00,meteohub,2013-04-21 00:22:00,
2013-04-20 20:27:00,72.0,45.7,29.91,East,90,0.0,2.0,30,0.00,,,0.00,meteohub,2013-04-21 00:27:00,
2013-04-20 20:32:00,72.1,46.4,29.91,East,90,1.0,1.0,31,0.00,,,0.00,meteohub,2013-04-21 00:32:00,
2013-04-20 20:37:00,72.3,46.6,29.91,South,180,0.0,1.0,31,0.00,,,0.00,meteohub,2013-04-21 00:37:00,
2013-04-20 20:42:00,72.3,47.3,29.91,SW,225,1.0,1.0,32,0.00,,,0.00,meteohub,2013-04-21 00:42:00,
2013-04-20 20:47:00,72.3,47.5,29.91,West,270,0.0,1.0,32,0.00,,,0.00,meteohub,2013-04-21 00:47:00,
2013-04-20 20:52:00,72.5,47.7,29.91,West,270,0.0,1.0,32,0.00,,,0.00,meteohub,2013-04-21 00:52:00,
2013-04-20 20:57:00,72.5,47.8,29.91,West,270,1.0,1.0,32,0.00,,,0.00,meteohub,2013-04-21 00:57:00,
2013-04-20 21:02:00,72.7,46.9,29.91,NW,315,2.0,2.0,31,0.00,,,0.00,meteohub,2013-04-21 01:02:00,
2013-04-20 21:07:00,72.9,46.9,29.92,NW,315,1.0,2.0,31,0.00,,,0.00,meteohub,2013-04-21 01:07:00,
2013-04-20 21:12:00,72.7,46.9,29.92,West,270,0.0,2.0,31,0.00,,,0.00,meteohub,2013-04-21 01:12:00,
2013-04-20 21:17:00,72.7,47.8,29.93,West,270,0.0,2.0,32,0.00,,,0.00,meteohub,2013-04-21 01:17:00,
2013-04-20 21:22:00,72.7,47.8,29.93,West,270,0.0,1.0,32,0.00,,,0.00,meteohub,2013-04-21 01:22:00,
2013-04-20 21:27:00,72.7,48.0,29.94,West,270,0.0,1.0,32,0.00,,,0.00,meteohub,2013-04-21 01:27:00,
2013-04-20 21:32:00,72.7,48.2,29.94,West,270,1.0,1.0,32,0.00,,,0.00,meteohub,2013-04-21 01:32:00,
2013-04-20 21:37:00,72.9,47.1,29.94,NW,315,1.0,2.0,31,0.00,,,0.00,meteohub,2013-04-21 01:37:00,
2013-04-20 21:42:00,72.9,46.2,29.94,NW,315,1.0,2.0,30,0.00,,,0.00,meteohub,2013-04-21 01:42:00,
2013-04-20 21:47:00,72.9,46.9,29.95,NW,315,1.0,2.0,31,0.00,,,0.00,meteohub,2013-04-21 01:47:00,
2013-04-20 21:52:00,73.0,46.9,29.95,North,0,2.0,2.0,31,0.00,,,0.00,meteohub,2013-04-21 01:52:00,
2013-04-20 21:57:00,73.0,48.0,29.95,NW,315,1.0,2.0,32,0.00,,,0.00,meteohub,2013-04-21 01:57:00,
2013-04-20 22:02:00,73.2,48.0,29.95,North,0,2.0,2.0,32,0.00,,,0.00,meteohub,2013-04-21 02:02:00,
2013-04-20 22:07:00,73.2,48.2,29.95,North,0,2.0,2.0,32,0.00,,,0.00,meteohub,2013-04-21 02:07:00,
2013-04-20 22:12:00,73.4,48.4,29.95,NE,45,1.0,2.0,32,0.00,,,0.00,meteohub,2013-04-21 02:12:00,
2013-04-20 22:17:00,73.2,47.5,29.95,NE,45,0.0,2.0,31,0.00,,,0.00,meteohub,2013-04-21 02:17:00,
2013-04-20 22:22:00,73.2,47.1,29.96,NE,45,0.0,2.0,31,0.00,,,0.00,meteohub,2013-04-21 02:22:00,
2013-04-20 22:27:00,73.2,48.0,29.96,SW,225,0.0,1.0,32,0.00,,,0.00,meteohub,2013-04-21 02:27:00,
2013-04-20 22:32:00,73.2,48.2,29.96,SW,225,0.0,1.0,32,0.00,,,0.00,meteohub,2013-04-21 02:32:00,
2013-04-20 22:37:00,73.2,48.2,29.95,SW,225,0.0,1.0,32,0.00,,,0.00,meteohub,2013-04-21 02:37:00,
2013-04-20 22:42:00,73.2,49.1,29.95,NW,315,1.0,1.0,33,0.00,,,0.00,meteohub,2013-04-21 02:42:00,
2013-04-20 22:47:00,73.0,49.1,29.96,NW,315,2.0,2.0,33,0.00,,,0.00,meteohub,2013-04-21 02:47:00,
2013-04-20 22:52:00,73.2,50.2,29.95,NW,315,2.0,2.0,34,0.00,,,0.00,meteohub,2013-04-21 02:52:00,
2013-04-20 22:57:00,73.2,49.3,29.96,SW,225,1.0,2.0,33,0.00,,,0.00,meteohub,2013-04-21 02:57:00,
2013-04-20 23:02:00,73.2,48.6,29.96,SE,135,2.0,2.0,32,0.00,,,0.00,meteohub,2013-04-21 03:02:00,
2013-04-20 23:07:00,73.4,48.4,29.96,SE,135,1.0,2.0,32,0.00,,,0.00,meteohub,2013-04-21 03:07:00,
2013-04-20 23:12:00,73.4,49.3,29.96,SE,135,0.0,2.0,33,0.00,,,0.00,meteohub,2013-04-21 03:12:00,
2013-04-20 23:17:00,73.4,49.3,29.96,SE,135,0.0,2.0,33,0.00,,,0.00,meteohub,2013-04-21 03:17:00,
2013-04-20 23:22:00,73.4,49.5,29.96,West,270,0.0,1.0,33,0.00,,,0.00,meteohub,2013-04-21 03:22:00,
2013-04-20 23:27:00,73.4,50.4,29.96,West,270,0.0,1.0,34,0.00,,,0.00,meteohub,2013-04-21 03:27:00,
2013-04-20 23:32:00,73.4,50.5,29.96,West,270,1.0,1.0,34,0.00,,,0.00,meteohub,2013-04-21 03:32:00,
2013-04-20 23:37:00,73.6,49.1,29.96,West,270,0.0,1.0,32,0.00,,,0.00,meteohub,2013-04-21 03:37:00,
2013-04-20 23:42:00,73.8,48.4,29.96,West,270,1.0,1.0,31,0.00,,,0.00,meteohub,2013-04-21 03:42:00,
2013-04-20 23:47:00,73.8,48.2,29.96,North,0,1.0,1.0,31,0.00,,,0.00,meteohub,2013-04-21 03:47:00,
2013-04-20 23:52:00,73.9,48.9,29.96,SW,225,3.0,3.0,32,0.00,,,0.00,meteohub,2013-04-21 03:52:00,
2013-04-20 23:57:00,73.9,48.9,29.96,NW,315,1.0,3.0,32,0.00,,,0.00,meteohub,2013-04-21 03:57:00,